Sulphur Springs, TX

3:13 AM CDT on April 29, 2017 (GMT -0500)
Sulphur Springs Municipal

Weather History for KSLR - March, 2013

Change the Weather History Date:

Monday, March 4, 2013

  Actual Average (KGVT) Record (KGVT)
Temperature  
Mean Temperature 66 °F -  
Max Temperature 77 °F 60 °F 80 °F (2013)
Min Temperature 55 °F 44 °F 26 °F (2014)
Cooling Degree Days 1    
Growing Degree Days 16 (Base 50)    
Moisture  
Dew Point 45 °F    
Average Humidity 51    
Maximum Humidity 77    
Minimum Humidity 29    
Precipitation  
Precipitation 0.00 in - - ()
Sea Level Pressure  
Sea Level Pressure 29.72 in    
Wind  
Wind Speed 18 mph (SSW)    
Max Wind Speed 30 mph    
Max Gust Speed 43 mph    
Visibility 10 miles    
Events      
Averages and records for this station are not official NWS values.
T = Trace of Precipitation, MM = Missing Value Source: NWS Daily Summary

Daily Weather History Graph

Daily Weather History Graph

Search for Another Location

Airport or City:

Trip Planner

Search our weather history database for the weather conditions in past years. The results will help you decide how hot, cold, wet, or windy it might be!

Date:

Astronomy

Mar. 04, 2013 Rise Set
Actual Time 6:46 AM CST 6:22 PM CST
Civil Twilight 6:21 AM CST 6:46 PM CST
Nautical Twilight 5:53 AM CST 7:15 PM CST
Astronomical Twilight 5:24 AM CST 7:44 PM CST
Moon 12:44 AM CST (3/4) 11:17 AM CST (3/4)
Length of Visible Light 12h 25m
Length of Day
11h 35m
Waning Gibbous, 52% of the Moon is Illuminated
Mar 4
Waning Gibbous
Mar 4
Last Quarter
Mar 11
New
Mar 19
First Quarter
Mar 27
Full

Hourly Weather History & Observations

Time (CST) Temp. Dew Point Humidity Pressure Visibility Wind Dir Wind Speed Gust Speed Precip Events Conditions
12:15 AM 57.2 °F 35.6 °F 44% 29.85 in 10.0 mi South 12.7 mph 23.0 mph N/A   Clear
12:35 AM 55.4 °F 35.6 °F 47% 29.85 in 10.0 mi South 13.8 mph 19.6 mph N/A   Clear
12:55 AM 55.4 °F 37.4 °F 51% 29.84 in 10.0 mi South 11.5 mph 23.0 mph N/A   Clear
1:15 AM 55.4 °F 37.4 °F 51% 29.84 in 10.0 mi South 13.8 mph 20.7 mph N/A   Clear
1:55 AM 55.4 °F 37.4 °F 51% 29.82 in 10.0 mi South 12.7 mph 21.9 mph N/A   Clear
2:15 AM 55.4 °F 39.2 °F 54% 29.81 in 10.0 mi South 17.3 mph 26.5 mph N/A   Clear
2:35 AM 55.4 °F 39.2 °F 54% 29.80 in 10.0 mi South 19.6 mph 29.9 mph N/A   Clear
2:55 AM 55.4 °F 39.2 °F 54% 29.79 in 10.0 mi SSW 16.1 mph 28.8 mph N/A   Clear
3:35 AM 55.4 °F 41.0 °F 58% 29.77 in 10.0 mi South 19.6 mph 32.2 mph N/A   Clear
3:55 AM 55.4 °F 42.8 °F 63% 29.77 in 10.0 mi South 21.9 mph 27.6 mph N/A   Clear
4:15 AM 55.4 °F 42.8 °F 63% 29.77 in 10.0 mi SSW 16.1 mph 26.5 mph N/A   Clear
4:35 AM 55.4 °F 42.8 °F 63% 29.77 in 10.0 mi SSW 17.3 mph 27.6 mph N/A   Clear
4:55 AM 55.4 °F 42.8 °F 63% 29.77 in 10.0 mi SSW 16.1 mph 25.3 mph N/A   Clear
5:15 AM 55.4 °F 42.8 °F 63% 29.78 in 10.0 mi SSW 16.1 mph 27.6 mph N/A   Clear
5:35 AM 55.4 °F 44.6 °F 67% 29.77 in 10.0 mi SSW 23.0 mph 29.9 mph N/A   Clear
5:55 AM 55.4 °F 44.6 °F 67% 29.77 in 10.0 mi SSW 25.3 mph 33.4 mph N/A   Clear
6:15 AM 55.4 °F 44.6 °F 67% 29.77 in 10.0 mi SSW 23.0 mph 35.7 mph N/A   Clear
6:35 AM 55.4 °F 46.4 °F 72% 29.76 in 10.0 mi SSW 20.7 mph 35.7 mph N/A   Clear
6:55 AM 55.4 °F 46.4 °F 72% 29.75 in 10.0 mi SSW 27.6 mph 35.7 mph N/A   Clear
7:15 AM 55.4 °F 46.4 °F 72% 29.74 in 10.0 mi SSW 26.5 mph 34.5 mph N/A   Clear
7:35 AM 57.2 °F 46.4 °F 67% 29.75 in 10.0 mi SSW 23.0 mph 32.2 mph N/A   Clear
7:55 AM 57.2 °F 46.4 °F 67% 29.75 in 10.0 mi SSW 26.5 mph 33.4 mph N/A   Clear
8:15 AM 57.2 °F 48.2 °F 72% 29.74 in 10.0 mi SSW 26.5 mph 33.4 mph N/A   Clear
8:35 AM 59.0 °F 48.2 °F 67% 29.75 in 10.0 mi SSW 29.9 mph 42.6 mph N/A   Clear
8:55 AM 59.0 °F 48.2 °F 67% 29.74 in 10.0 mi SSW 27.6 mph 36.8 mph N/A   Clear
9:15 AM 59.0 °F 48.2 °F 67% 29.74 in 10.0 mi SSW 28.8 mph 34.5 mph N/A   Clear
9:35 AM 62.6 °F 48.2 °F 59% 29.73 in 10.0 mi SSW 28.8 mph 36.8 mph N/A   Clear
9:55 AM 62.6 °F 48.2 °F 59% 29.72 in 10.0 mi SSW 27.6 mph 36.8 mph N/A   Clear
10:15 AM 62.6 °F 48.2 °F 59% 29.74 in 10.0 mi SW 26.5 mph 34.5 mph N/A   Clear
10:35 AM 64.4 °F 48.2 °F 56% 29.73 in 10.0 mi SSW 20.7 mph 35.7 mph N/A   Clear
10:55 AM 66.2 °F 46.4 °F 49% 29.72 in 10.0 mi SSW 24.2 mph 35.7 mph N/A   Clear
11:15 AM 66.2 °F 46.4 °F 49% 29.72 in 10.0 mi SSW 17.3 mph 34.5 mph N/A   Clear
11:35 AM 66.2 °F 46.4 °F 49% 29.72 in 10.0 mi SW 23.0 mph 32.2 mph N/A   Clear
11:55 AM 68.0 °F 46.4 °F 46% 29.71 in 10.0 mi SSW 24.2 mph 32.2 mph N/A   Clear
12:15 PM 68.0 °F 46.4 °F 46% 29.71 in 10.0 mi SW 24.2 mph 29.9 mph N/A   Clear
12:35 PM 69.8 °F 46.4 °F 43% 29.70 in 10.0 mi SSW 25.3 mph 29.9 mph N/A   Clear
12:55 PM 69.8 °F 46.4 °F 43% 29.69 in 10.0 mi SSW 21.9 mph 32.2 mph N/A   Clear
1:15 PM 71.6 °F 46.4 °F 41% 29.68 in 10.0 mi SW 27.6 mph 33.4 mph N/A   Clear
1:35 PM 73.4 °F 44.6 °F 36% 29.67 in 10.0 mi SSW 20.7 mph 27.6 mph N/A   Clear
1:55 PM 73.4 °F 44.6 °F 36% 29.66 in 10.0 mi SW 23.0 mph 29.9 mph N/A   Clear
2:15 PM 73.4 °F 44.6 °F 36% 29.66 in 10.0 mi SW 21.9 mph 33.4 mph N/A   Clear
2:35 PM 75.2 °F 44.6 °F 34% 29.66 in 10.0 mi SSW 21.9 mph 32.2 mph N/A   Clear
2:55 PM 77.0 °F 44.6 °F 32% 29.65 in 10.0 mi SSW 18.4 mph 28.8 mph N/A   Clear
3:15 PM 77.0 °F 44.6 °F 32% 29.66 in 10.0 mi SW 23.0 mph 28.8 mph N/A   Clear
3:35 PM 77.0 °F 44.6 °F 32% 29.65 in 10.0 mi SSW 24.2 mph 31.1 mph N/A   Clear
3:55 PM 77.0 °F 44.6 °F 32% 29.65 in 10.0 mi SSW 23.0 mph 27.6 mph N/A   Clear
4:15 PM 77.0 °F 44.6 °F 32% 29.65 in 10.0 mi SSW 19.6 mph 25.3 mph N/A   Clear
4:35 PM 77.0 °F 44.6 °F 32% 29.65 in 10.0 mi SSW 15.0 mph 26.5 mph N/A   Clear
4:55 PM 77.0 °F 44.6 °F 32% 29.66 in 10.0 mi SSW 18.4 mph 21.9 mph N/A   Clear
5:15 PM 77.0 °F 42.8 °F 29% 29.66 in 10.0 mi SSW 18.4 mph 23.0 mph N/A   Clear
5:35 PM 77.0 °F 42.8 °F 29% 29.66 in 10.0 mi SSW 16.1 mph 21.9 mph N/A   Clear
5:55 PM 75.2 °F 44.6 °F 34% 29.66 in 10.0 mi SSW 18.4 mph 23.0 mph N/A   Clear
6:15 PM 73.4 °F 44.6 °F 36% 29.67 in 10.0 mi South 12.7 mph 21.9 mph N/A   Clear
6:35 PM 71.6 °F 46.4 °F 41% 29.67 in 10.0 mi South 10.4 mph - N/A   Clear
6:55 PM 71.6 °F 46.4 °F 41% 29.67 in 10.0 mi South 9.2 mph - N/A   Clear
7:15 PM 69.8 °F 46.4 °F 43% 29.67 in 10.0 mi South 9.2 mph - N/A   Clear
7:35 PM 69.8 °F 46.4 °F 43% 29.67 in 10.0 mi South 6.9 mph - N/A   Clear
7:55 PM 68.0 °F 46.4 °F 46% 29.68 in 10.0 mi South 5.8 mph - N/A   Clear
8:35 PM 68.0 °F 48.2 °F 49% 29.68 in 10.0 mi South 9.2 mph - N/A   Clear
8:55 PM 68.0 °F 48.2 °F 49% 29.68 in 10.0 mi South 10.4 mph - N/A   Clear
9:15 PM 68.0 °F 48.2 °F 49% 29.68 in 10.0 mi South 6.9 mph - N/A   Clear
9:35 PM 68.0 °F 48.2 °F 49% 29.69 in 10.0 mi South 9.2 mph - N/A   Clear
9:55 PM 66.2 °F 50.0 °F 56% 29.70 in 10.0 mi South 8.1 mph - N/A   Clear
10:15 PM 66.2 °F 50.0 °F 56% 29.70 in 10.0 mi SSW 8.1 mph - N/A   Clear
10:55 PM 64.4 °F 51.8 °F 64% 29.72 in 10.0 mi West 5.8 mph - N/A   Clear
11:15 PM 59.0 °F 50.0 °F 72% 29.72 in 10.0 mi West 3.5 mph - N/A   Clear
11:35 PM 57.2 °F 50.0 °F 77% 29.75 in 10.0 mi NNW 16.1 mph - N/A   Clear
11:55 PM 60.8 °F 48.2 °F 63% 29.78 in 10.0 mi NNW 11.5 mph - N/A   Clear